"Pseudo-MPEC" for CARKUC2

Created 2024 Sep 8 6:22:07 UT using Find_Orb

Click here for an explanation of pseudo-MPECs

 
 Astrometry: 
     CARKUC2*1C2024 09 07.20893222 46 21.205+15 00 12.64   ~975q 21.30GVNEOCPG96
     CARKUC2 1C2024 09 07.21521522 46 19.628+14 58 57.32   ~975q 21.01GVNEOCPG96
     CARKUC2 1C2024 09 07.22045022 46 18.268+14 57 53.14   ~975q 21.97GVNEOCPG96
     CARKUC2 1C2024 09 07.22566122 46 16.864+14 56 49.60   ~975q 20.63GVNEOCPG96
     CARKUC2  C2024 09 07.26040722 46 04.265+14 49 10.24   ~9777 20.6 GVNEOCPH01
     CARKUC2  C2024 09 07.26624722 46 02.515+14 47 52.65   ~9777 20.4 GVNEOCPH01
     CARKUC2  C2024 09 07.27565122 45 59.668+14 45 45.95   ~9777 20.4 GVNEOCPH01
     CARKUC2  C2024 09 07.28130322 45 57.925+14 44 29.14   ~9777 20.4 GVNEOCPH01
     CARKUC2 KC2024 09 07.32577222 45 46.494+14 34 14.99   ~978M 20.61GVNEOCPI52
     CARKUC2 KC2024 09 07.32841822 45 45.634+14 33 35.10   ~978M 20.74GVNEOCPI52
     CARKUC2 KC2024 09 07.33107022 45 44.802+14 32 55.97   ~978M 20.39GVNEOCPI52
     CARKUC2 KC2024 09 07.33373222 45 43.913+14 32 16.55   ~978M 20.53GVNEOCPI52
     CARKUC2 KC2024 09 07.81484522 46 07.98 +11 25 24.1    ~97KM 20.1 GVNEOCPK62
     CARKUC2 KC2024 09 07.81807122 46 07.13 +11 23 34.7    ~97KM 19.6 GVNEOCPK62
     CARKUC2 1C2024 09 07.81926 22 46 07.85 +11 22 44.5    ~97Mb 20.3 VXNEOCP033
     CARKUC2 1C2024 09 07.81963 22 46 07.76 +11 22 31.6    ~97Mb 20.8 VXNEOCP033
     CARKUC2 KC2024 09 07.81968522 46 06.70 +11 22 39.0    ~97KM 20.1 GVNEOCPK62
     CARKUC2 1C2024 09 07.82001 22 46 07.66 +11 22 18.7    ~97Mb 20.1 VXNEOCP033
     CARKUC2 KC2024 09 07.85381222 45 56.23 +11 02 21.2    ~97L7 19.7 GVNEOCPK62
     CARKUC2 KC2024 09 07.85540422 45 55.67 +11 01 21.7    ~97L7 19.7 GVNEOCPK62
     CARKUC2 KC2024 09 07.85864122 45 54.59 +10 59 20.8    ~97L7 19.8 GVNEOCPK62
     CARKUC2 KB2024 09 07.86323122 46 08.34 +10 57 47.6    ~97LM 19.4 GXNEOCPI93
     CARKUC2 KB2024 09 07.86565922 46 07.57 +10 56 15.7    ~97LM 19.3 GXNEOCPI93
     CARKUC2 KB2024 09 07.86804022 46 06.80 +10 54 45.3    ~97LM 19.5 GXNEOCPI93
     CARKUC2 KC2024 09 07.89301822 45 41.50 +10 36 51.9    ~97M7 19.7 GVNEOCPK62
     CARKUC2 KC2024 09 07.89432622 45 40.95 +10 35 58.7    ~97M7 19.9 GVNEOCPK62
     CARKUC2 KC2024 09 07.89563422 45 40.41 +10 35 04.6    ~97M7 19.7 GVNEOCPK62
     CARKUC2 KC2024 09 07.89693922 45 39.87 +10 34 10.3    ~97M7 19.9 GVNEOCPK62
     CARKUC2 pC2024 09 07.92610722 45 27.94 +10 14 59.8    ~97Mq 19.6 GVNEOCPL01
     CARKUC2 pC2024 09 07.92831422 45 26.85 +10 13 21.4    ~97Mq 19.6 GVNEOCPL01
     CARKUC2 pC2024 09 07.93078022 45 25.55 +10 11 32.0    ~97Mq 19.8 GVNEOCPL01
     CARKUC2 mC2024 09 08.13485922 46 18.433+06 51 34.96   ~983b 18.56GVNEOCPI52
     CARKUC2 mC2024 09 08.13496422 46 18.386+06 51 26.35   ~983b 19.06GVNEOCPI52
     CARKUC2 mC2024 09 08.13506522 46 18.332+06 51 18.50   ~983b 18.97GVNEOCPI52
     CARKUC2 mC2024 09 08.13517122 46 18.293+06 51 10.51   ~983b 18.16GVNEOCPI52
     CARKUC2 KC2024 09 08.16117422 45 27.37 +06 12 55.5    ~984M 19.5 GVNEOCPH21
     CARKUC2 KC2024 09 08.16258222 45 26.37 +06 10 53.5    ~984M 18.9 GVNEOCPH21
     CARKUC2 KC2024 09 08.16399022 45 25.38 +06 08 50.2    ~984M 18.9 GVNEOCPH21
     CARKUC2 KC2024 09 08.16539822 45 24.39 +06 06 47.1    ~984M 18.6 GVNEOCPH21
     CARKUC2 KC2024 09 08.16680722 45 23.38 +06 04 42.7    ~984M 18.6 GVNEOCPH21

Station data:
(033) Karl Schwarzschild Observatory, Tautenburg  (N50.980139 E11.711240)
   Germany.  Observer B. Stecklum. 1.34-m f/3 Schmidt + CCD.
(G96) Mt. Lemmon Survey  (N32.442729 W110.788720)  US/Arizona.  Observer E.
   J. Christensen. 1.5-m reflector + 10K CCD.
(H01) Magdalena Ridge Observatory, Socorro  (N33.984833 W107.189333)  US/New
   Mexico.  Observers W. H. Ryan, E. V. Ryan. Measurer W. H. Ryan. 2.4-m
   f/8.9 reflector + CCD.
(H21) Astronomical Research Observatory, Westfield  (N39.483054 W87.968270)
   US/Illinois.  Observer R. Holmes. Measurers S. Foglia, L. Buzzi, T.
   Linder, R. Holmes. 0.76-m f/3.0 astrograph + CCD0.81-m f/4.0 astrograph +
   CCD0.61-m f/4.5 astrograph + CCD0.40-m f/5.32 astrograph + CCD.
(I52) Steward Observatory, Mt. Lemmon Station  (N32.442570 W110.788920)
   US/Arizona.  Observers T. A. Pruyne, B. M. Africano, E. J. Christensen, G.
   A. Farneth, D. C. Fuls, A. R. Gibbs, A. D. Grauer, H. Gröller, J. A.
   Johnson, R. A. Kowalski, S. M. Larson, G. J. Leonard, D. Rankin, R. L.
   Seaman, F. C. Shelly, K. W. Wierzchoś. 1.0-m prime focus + CCD.
(I93) St Pardon de Conques  (N44.558670 W0.202960)  France.  Observers F.
   Losse, W. D'Anna. Measurer F. Losse. 0.40-m f/3.7 reflector + CCD.
(K62) Teplice Observatory  (N50.638318 E13.846750)  Czech Republic.  Observer
   Z. Moravec. 0.43-m f/4.5 reflector + CCD.
(L01) Višnjan Observatory, Tičan  (N45.290897 E13.749300)  Croatia.
   Observers K. Korlević, D. Pujagic, V. Dobos. Measurers D. Pujagic, K.
   Korlević. 1.0-m f/2.9 reflector + CCD.

Orbital elements:  CARKUC2
   Perigee 2024 Sep 8.72471 +/- 2.6e-5 TT = 17:23:35 (JD 2460562.22471)
Epoch 2024 Sep  8.0 TT = JDT 2460561.5                           AutoNEOCP
q162966.151 +/- 45.6                (J2000 equator)
H   29.84 G 0.15                    Peri.  250.42796 +/- 0.0006
                                    Node   160.98312 +/- 0.00010
e  78.4239690 +/- 0.0608            Incl.   91.92267 +/- 0.00041
From 40 observations 2024 Sept. 7-8 (23.0 hr); mean residual 0".24
Residuals in arcseconds: 
240907 G96  .23+  .05+    240907 033  .03-  .03+    240907 L01  .17+  .40-    
240907 G96  .18+  .25+    240907 033  .06+  .20-    240907 L01  .44+  .51-    
240907 G96  .03-  .36-    240907 K62  .24+  .32-    240907 L01  .34-  .60+    
240907 G96  .53-  .02-    240907 033  .05+  .08-    240908 I52  .10+  .42+    
240907 H01  .03-  .13-    240907 K62  .06-  .07-    240908 I52  .03+  .04+    
240907 H01  .06-  .16-    240907 K62  .30-  .29-    240908 I52  .16-  .12+    
240907 H01  .07+  .18-    240907 K62  .29+  .05+    240908 I52  .11-  .44+    
240907 H01  .00   .22+    240907 I93  .31-  .46+    240908 H21  .03-  .10-    
240907 I52  .19-  .15+    240907 I93  .09-  .23+    240908 H21  .21-  .12+    
240907 I52  .17-  .39-    240907 I93  .12+  .26+    240908 H21  .13-  .36-    
240907 I52  .28+  .11+    240907 K62  .19+  .18-    240908 H21  .07+  .04-    
240907 I52  .05-  .67+    240907 K62  .02+  .25+    240908 H21  .10+  .32-    
240907 K62  .08+  .19-    240907 K62  .04+  .05-    
240907 K62  .16+  .16+    240907 K62  .08+  .50-    

Ephemerides (geocentric):
Date (UTC) HH   RA             Dec           delta  r     elong  mag " sig PA
---- --------  ------------   ------------  ------ ------ -----  --- --------
2024 09 08 06  22 44 27.608   +04 03 15.80  589026 1.0113 168.7 18.5 .388 151
2024 09 08 07  22 44 15.818   +02 35 09.17  541461 1.0110 169.9 18.3 .407 149
2024 09 08 08  22 44 01.811   +00 50 09.15  494302 1.0107 171.3 18.1 .422 146
2024 09 08 09  22 43 44.892   -01 16 51.09  447682 1.0104 172.6 17.8 .430 142
2024 09 08 10  22 43 24.041   -03 53 06.95  401790 1.0101 173.6 17.5 .427 135
2024 09 08 11  22 42 57.697   -07 09 09.56  356909 1.0098 173.5 17.2 .412 122
2024 09 08 12  22 42 23.346   -11 20 30.69  313481 1.0095 171.3 17.1 .411  98
2024 09 08 13  22 41 36.660   -16 50 16.56  272207 1.0092 166.9 16.9 .554  61
2024 09 08 14  22 40 29.495   -24 12 06.21  234241 1.0088 160.1 16.8 1.05  34
2024 09 08 15  22 38 44.498   -34 10 20.17  201476 1.0085 150.5 16.8 2.07  21
2024 09 08 16  22 35 36.940   -47 25 34.17  176847 1.0082 137.4 16.9 3.79  14
2024 09 08 17  22 28 25.724   -63 45 44.38  164080 1.0079 121.2 17.2 5.98  12
2024 09 08 18  21 54 49.756   -81 05 43.18  165950 1.0076 103.9 17.7 7.77  19
2024 09 08 19  11 44 34.242   -82 44 22.00  182003 1.0073  88.2 18.5 8.45 170
2024 09 08 20  11 05 31.228   -70 29 22.96  208983 1.0070  75.9 19.4 8.27 179
2024 09 08 21  10 57 52.620   -61 15 57.83  243266 1.0067  66.7 20.3 7.76   0
2024 09 08 22  10 54 37.660   -54 26 18.91  282191 1.0063  59.9 21?? 7.23   1
2024 09 08 23  10 52 49.769   -49 18 58.38  324080 1.0060  54.8 21?? 6.78   1
2024 09 09 00  10 51 41.261   -45 23 18.55  367916 1.0057  50.9 22?? 6.40   1
2024 09 09 01  10 50 53.894   -42 18 26.65  413075 1.0054  47.8 23?? 6.10   1
2024 09 09 02  10 50 19.185   -39 50 19.54  459162 1.0051  45.4 23?? 5.86   1
2024 09 09 03  10 49 52.656   -37 49 23.57  505922 1.0048  43.4 23?? 5.67   0
2024 09 09 04  10 49 31.715   -36 09 00.81  553183 1.0045  41.7 24?? 5.51   0
2024 09 09 05  10 49 14.764   -34 44 29.26  600824 1.0041  40.3 24?? 5.38   0
2024 09 09 06  10 49 00.759   -33 32 24.73  648761 1.0038  39.1 25?? 5.27   0
2024 09 09 07  10 48 48.992   -32 30 16.41  696932 1.0035  38.1 25?? 5.18   0
2024 09 09 08  10 48 38.964   -31 36 10.81  745291 1.0032  37.2 25?? 5.10   0
2024 09 09 09  10 48 30.316   -30 48 41.13  793803 1.0029  36.4 25?? 5.03   0
2024 09 09 10  10 48 22.780   -30 06 39.90  842440 1.0026  35.7 26?? 4.97   0
2024 09 09 11  10 48 16.154   -29 29 14.01  891183 1.0023  35.1 26?? 4.92   0
2024 09 09 12  10 48 10.282   -28 55 41.08  940015 1.0020  34.6 26?? 4.87   0
2024 09 09 13  10 48 05.041   -28 25 26.94  988922 1.0016  34.1 26?? 4.83   0
2024 09 09 14  10 48 00.335   -27 58 03.73  .00694 1.0013  33.6 26?? 4.80   0
2024 09 09 15  10 47 56.085   -27 33 08.51  .00727 1.0010  33.2 27?? 4.76   0
2024 09 09 16  10 47 52.228   -27 10 22.25  .00759 1.0007  32.8 27?? 4.74   0
2024 09 09 17  10 47 48.711   -26 49 29.05  .00792 1.0004  32.5 27?? 4.71 179
2024 09 09 18  10 47 45.491   -26 30 15.47  .00825 1.0001  32.1 27?? 4.69 179
2024 09 09 19  10 47 42.532   -26 12 30.13  .00858 0.9998  31.8 27?? 4.66 179
2024 09 09 20  10 47 39.802   -25 56 03.30  .00891 0.9995  31.6 27?? 4.64 179
2024 09 09 21  10 47 37.278   -25 40 46.63  .00924 0.9991  31.3 27?? 4.63 179
2024 09 09 22  10 47 34.935   -25 26 32.90  .00957 0.9988  31.1 27?? 4.61 179
2024 09 09 23  10 47 32.755   -25 13 15.86  .00990 0.9985  30.9 28?? 4.59 179
2024 09 10 00  10 47 30.721   -25 00 50.03  .01023 0.9982  30.6 28?? 4.58 179
2024 09 10 01  10 47 28.820   -24 49 10.65  .01056 0.9979  30.5 28?? 4.56 179
2024 09 10 02  10 47 27.038   -24 38 13.49  .01089 0.9976  30.3 28?? 4.55 179
2024 09 10 03  10 47 25.364   -24 27 54.84  .01122 0.9973  30.1 28?? 4.54 179
2024 09 10 04  10 47 23.790   -24 18 11.40  .01155 0.9970  29.9 28?? 4.53 179
2024 09 10 05  10 47 22.306   -24 09 00.25  .01188 0.9967  29.8 28?? 4.52 179